| time (UTC) | temp F | wind direction | speed MPH | gust MPH | rain 1hr in | rain 24hr in | rain mn in | humidity % | barometer mb |
| 20260509063014 | 53 | 65 | 1.0 | 3.0 | 0.00 | 0.02 | 0.00 | 87 | 1016.5 |
| 20260509062813 | 53 | 62 | 1.0 | 5.0 | 0.00 | 0.02 | 0.00 | 87 | 1016.5 |
| 20260509062259 | 53 | 64 | 1.0 | 5.0 | 0.00 | 0.02 | 0.00 | 87 | 1016.5 |
| 20260509061732 | 53 | 45 | 1.0 | 6.0 | 0.00 | 0.02 | 0.00 | 87 | 1016.3 |
| 20260509061530 | 53 | 76 | 1.0 | 6.0 | 0.00 | 0.02 | 0.00 | 87 | 1016.4 |
| 20260509061010 | 52 | 98 | 2.0 | 6.0 | 0.00 | 0.02 | 0.00 | 87 | 1016.3 |
| 20260509060801 | 52 | 71 | 1.0 | 6.0 | 0.00 | 0.02 | 0.00 | 88 | 1016.4 |
| 20260509060551 | 52 | 93 | 2.0 | 6.0 | 0.00 | 0.02 | 0.00 | 89 | 1016.4 |
| 20260509055701 | 52 | 77 | 1.0 | 4.0 | 0.00 | 0.02 | 0.00 | 89 | 1016.2 |
| 20260509055450 | 51 | 93 | 1.0 | 4.0 | 0.00 | 0.02 | 0.00 | 89 | 1016.2 |
| 20260509055249 | 51 | 98 | 1.0 | 4.0 | 0.00 | 0.02 | 0.00 | 89 | 1016.4 |
| 20260509055043 | 51 | 84 | 1.0 | 4.0 | 0.00 | 0.02 | 0.00 | 88 | 1016.2 |
| 20260509054841 | 51 | 117 | 1.0 | 4.0 | 0.00 | 0.02 | 0.00 | 88 | 1016.4 |
| 20260509054637 | 51 | 122 | 1.0 | 3.0 | 0.00 | 0.02 | 0.00 | 89 | 1016.3 |
| 20260509054432 | 51 | 96 | 1.0 | 2.0 | 0.00 | 0.02 | 0.00 | 89 | 1016.2 |
| 20260509054233 | 50 | 103 | 1.0 | 2.0 | 0.00 | 0.02 | 0.00 | 90 | 1016.2 |
| 20260509054027 | 50 | 131 | 1.0 | 2.0 | 0.00 | 0.02 | 0.00 | 90 | 1016.2 |
| 20260509053824 | 50 | 105 | 1.0 | 2.0 | 0.00 | 0.02 | 0.00 | 91 | 1016.2 |
| 20260509053625 | 49 | 110 | 1.0 | 2.0 | 0.00 | 0.02 | 0.00 | 91 | 1016.2 |
| 20260509053054 | 48 | 105 | 0.0 | 2.0 | 0.00 | 0.02 | 0.00 | 93 | 1016.2 |
| 20260509052847 | 48 | 107 | 0.0 | 3.0 | 0.00 | 0.02 | 0.00 | 92 | 1016.2 |
| 20260509052642 | 48 | 110 | 0.0 | 3.0 | 0.00 | 0.02 | 0.00 | 92 | 1016.2 |
| 20260509052127 | 48 | 113 | 0.0 | 3.0 | 0.00 | 0.02 | 0.00 | 92 | 1016.2 |
| 20260509051926 | 48 | 114 | 0.0 | 3.0 | 0.00 | 0.02 | 0.00 | 92 | 1016.2 |
| 20260509051720 | 48 | 86 | 0.0 | 3.0 | 0.00 | 0.02 | 0.00 | 92 | 1016.2 |
| 20260509051514 | 48 | 87 | 1.0 | 3.0 | 0.00 | 0.02 | 0.00 | 92 | 1016.2 |
| 20260509051309 | 48 | 116 | 1.0 | 3.0 | 0.00 | 0.02 | 0.00 | 92 | 1016.2 |
| 20260509051104 | 48 | 113 | 0.0 | 3.0 | 0.00 | 0.02 | 0.00 | 92 | 1016.2 |
| 20260509050902 | 48 | 114 | 0.0 | 3.0 | 0.00 | 0.02 | 0.00 | 92 | 1016.2 |
| 20260509050659 | 48 | 113 | 0.0 | 3.0 | 0.00 | 0.02 | 0.00 | 92 | 1016.2 |
| 20260509050453 | 48 | 114 | 1.0 | 3.0 | 0.00 | 0.02 | 0.00 | 92 | 1016.1 |
| 20260509050248 | 48 | 120 | 1.0 | 3.0 | 0.00 | 0.02 | 0.00 | 92 | 1016.1 |
| 20260509050046 | 48 | 122 | 1.0 | 3.0 | 0.00 | 0.02 | 0.00 | 92 | 1016.0 |
| 20260509045836 | 48 | 127 | 1.0 | 3.0 | 0.00 | 0.02 | 0.00 | 92 | 1016.0 |
| 20260509045629 | 48 | 114 | 1.0 | 3.0 | 0.00 | 0.02 | 0.00 | 92 | 1016.0 |
| 20260509045422 | 48 | 127 | 1.0 | 3.0 | 0.00 | 0.02 | 0.00 | 92 | 1016.0 |
| 20260509045215 | 48 | 102 | 1.0 | 3.0 | 0.00 | 0.02 | 0.00 | 92 | 1016.0 |
| 20260509045011 | 48 | 120 | 1.0 | 3.0 | 0.00 | 0.02 | 0.00 | 92 | 1016.0 |
| 20260509044443 | 48 | 114 | 1.0 | 3.0 | 0.00 | 0.02 | 0.00 | 91 | 1015.9 |
| 20260509044236 | 48 | 119 | 1.0 | 3.0 | 0.00 | 0.02 | 0.00 | 91 | 1015.9 |
| 20260509043715 | 49 | 108 | 0.0 | 2.0 | 0.00 | 0.02 | 0.00 | 91 | 1015.8 |
| 20260509043143 | 49 | 115 | 0.0 | 2.0 | 0.00 | 0.02 | 0.00 | 91 | 1015.8 |
| 20260509042936 | 49 | 115 | 1.0 | 2.0 | 0.00 | 0.02 | 0.00 | 91 | 1015.8 |
| 20260509042103 | 48 | 117 | 0.0 | 2.0 | 0.00 | 0.02 | 0.00 | 91 | 1015.8 |
| 20260509041903 | 48 | 120 | 0.0 | 2.0 | 0.00 | 0.02 | 0.00 | 91 | 1015.8 |
| 20260509041654 | 48 | 126 | 0.0 | 2.0 | 0.00 | 0.02 | 0.00 | 90 | 1015.8 |
| 20260509041448 | 49 | 109 | 0.0 | 2.0 | 0.00 | 0.02 | 0.00 | 90 | 1015.8 |
| 20260509041245 | 49 | 144 | 0.0 | 0.0 | 0.00 | 0.02 | 0.00 | 90 | 1015.8 |
| 20260509041044 | 49 | 144 | 0.0 | 0.0 | 0.00 | 0.02 | 0.00 | 90 | 1015.8 |
| 20260509040833 | 49 | 144 | 0.0 | 0.0 | 0.00 | 0.02 | 0.00 | 90 | 1015.9 |
| 20260509040309 | 49 | 122 | 0.0 | 0.0 | 0.00 | 0.02 | 0.00 | 89 | 1015.8 |
| 20260509035750 | 49 | 122 | 0.0 | 0.0 | 0.00 | 0.02 | 0.00 | 88 | 1015.8 |
| 20260509035551 | 49 | 122 | 0.0 | 0.0 | 0.00 | 0.02 | 0.00 | 88 | 1015.9 |
| 20260509035023 | 50 | 121 | 0.0 | 0.0 | 0.00 | 0.02 | 0.00 | 88 | 1015.8 |
| 20260509034818 | 50 | 122 | 0.0 | 0.0 | 0.00 | 0.02 | 0.00 | 88 | 1015.8 |
| 20260509034609 | 50 | 122 | 0.0 | 0.0 | 0.00 | 0.02 | 0.00 | 88 | 1015.8 |
| 20260509034359 | 50 | 122 | 0.0 | 0.0 | 0.00 | 0.02 | 0.00 | 88 | 1015.8 |
| 20260509034152 | 50 | 122 | 0.0 | 0.0 | 0.00 | 0.02 | 0.00 | 88 | 1015.7 |
| 20260509033953 | 50 | 121 | 0.0 | 0.0 | 0.00 | 0.02 | 0.00 | 88 | 1015.7 |
| 20260509033745 | 50 | 122 | 0.0 | 0.0 | 0.00 | 0.02 | 0.00 | 89 | 1015.7 |
| 20260509033535 | 50 | 122 | 0.0 | 0.0 | 0.00 | 0.02 | 0.00 | 89 | 1015.7 |
| 20260509033326 | 50 | 121 | 0.0 | 0.0 | 0.00 | 0.02 | 0.00 | 88 | 1015.6 |
| 20260509033118 | 50 | 122 | 0.0 | 0.0 | 0.00 | 0.02 | 0.00 | 88 | 1015.7 |
| 20260509032908 | 50 | 122 | 0.0 | 0.0 | 0.00 | 0.02 | 0.00 | 88 | 1015.7 |
| 20260509032705 | 50 | 122 | 0.0 | 0.0 | 0.00 | 0.02 | 0.00 | 88 | 1015.7 |
| 20260509032502 | 50 | 122 | 0.0 | 0.0 | 0.00 | 0.02 | 0.00 | 88 | 1015.7 |
| 20260509032259 | 50 | 122 | 0.0 | 0.0 | 0.00 | 0.02 | 0.00 | 89 | 1015.7 |
| 20260509031413 | 50 | 122 | 0.0 | 0.0 | 0.00 | 0.02 | 0.00 | 89 | 1015.7 |
| 20260509031209 | 50 | 122 | 0.0 | 0.0 | 0.00 | 0.02 | 0.00 | 89 | 1015.7 |
| 20260509031003 | 50 | 121 | 0.0 | 0.0 | 0.00 | 0.02 | 0.00 | 89 | 1015.7 |
| 20260509030756 | 50 | 121 | 0.0 | 0.0 | 0.00 | 0.02 | 0.00 | 89 | 1015.7 |
| 20260509030551 | 50 | 122 | 0.0 | 0.0 | 0.00 | 0.02 | 0.00 | 89 | 1015.6 |
| 20260509030351 | 50 | 122 | 0.0 | 0.0 | 0.00 | 0.02 | 0.00 | 89 | 1015.6 |
| 20260509030144 | 50 | 121 | 0.0 | 0.0 | 0.00 | 0.02 | 0.00 | 89 | 1015.7 |
| 20260509025935 | 50 | 122 | 0.0 | 0.0 | 0.00 | 0.02 | 0.00 | 89 | 1015.7 |
| 20260509025727 | 50 | 122 | 0.0 | 0.0 | 0.00 | 0.02 | 0.00 | 89 | 1015.6 |
| 20260509025528 | 50 | 122 | 0.0 | 0.0 | 0.00 | 0.02 | 0.00 | 89 | 1015.7 |
| 20260509025320 | 50 | 122 | 0.0 | 0.0 | 0.00 | 0.02 | 0.00 | 89 | 1015.6 |
| 20260509025115 | 50 | 122 | 0.0 | 0.0 | 0.00 | 0.02 | 0.00 | 89 | 1015.7 |
| 20260509024913 | 50 | 122 | 0.0 | 0.0 | 0.00 | 0.02 | 0.00 | 89 | 1015.7 |
| 20260509024019 | 50 | 121 | 0.0 | 0.0 | 0.00 | 0.02 | 0.00 | 90 | 1015.8 |
| 20260509023453 | 50 | 122 | 0.0 | 2.0 | 0.00 | 0.02 | 0.00 | 91 | 1016.0 |
| 20260509023251 | 49 | 120 | 0.0 | 2.0 | 0.00 | 0.02 | 0.00 | 91 | 1016.1 |
| 20260509023048 | 49 | 113 | 0.0 | 1.0 | 0.00 | 0.02 | 0.00 | 91 | 1016.1 |
| 20260509022846 | 49 | 223 | 0.0 | 0.0 | 0.00 | 0.02 | 0.00 | 90 | 1016.2 |
| 20260509022644 | 49 | 224 | 1.0 | 2.0 | 0.00 | 0.02 | 0.00 | 90 | 1016.1 |
| 20260509022440 | 49 | 113 | 1.0 | 2.0 | 0.00 | 0.02 | 0.00 | 90 | 1016.1 |
| 20260509022232 | 49 | 115 | 1.0 | 2.0 | 0.00 | 0.02 | 0.00 | 90 | 1016.1 |
| 20260509021706 | 49 | 119 | 1.0 | 3.0 | 0.00 | 0.02 | 0.00 | 90 | 1016.0 |
| 20260509021505 | 50 | 123 | 1.0 | 3.0 | 0.00 | 0.02 | 0.00 | 90 | 1016.0 |
| 20260509021303 | 50 | 116 | 1.0 | 3.0 | 0.00 | 0.02 | 0.00 | 90 | 1016.0 |
| 20260509021101 | 49 | 115 | 1.0 | 3.0 | 0.00 | 0.02 | 0.00 | 90 | 1015.9 |
| 20260509020902 | 49 | 132 | 0.0 | 3.0 | 0.00 | 0.02 | 0.00 | 90 | 1015.9 |
| 20260509020702 | 49 | 125 | 0.0 | 3.0 | 0.00 | 0.02 | 0.00 | 90 | 1016.0 |
| 20260509020145 | 49 | 98 | 0.0 | 3.0 | 0.00 | 0.02 | 0.00 | 89 | 1015.9 |
| 20260509015944 | 50 | 139 | 0.0 | 3.0 | 0.00 | 0.02 | 0.00 | 89 | 1015.8 |
| 20260509015743 | 50 | 179 | 0.0 | 1.0 | 0.00 | 0.02 | 0.00 | 88 | 1015.8 |
| 20260509015544 | 50 | 226 | 0.0 | 0.0 | 0.00 | 0.02 | 0.00 | 88 | 1015.9 |
| 20260509015339 | 50 | 226 | 0.0 | 0.0 | 0.00 | 0.02 | 0.00 | 87 | 1015.9 |
| 20260509015138 | 50 | 226 | 0.0 | 0.0 | 0.00 | 0.02 | 0.00 | 87 | 1015.9 |
| 20260509014937 | 50 | 226 | 0.0 | 0.0 | 0.00 | 0.02 | 0.00 | 87 | 1015.9 |
| 20260509014738 | 50 | 226 | 0.0 | 0.0 | 0.00 | 0.02 | 0.00 | 87 | 1015.9 |
| 20260509014530 | 50 | 226 | 0.0 | 0.0 | 0.00 | 0.02 | 0.00 | 88 | 1015.8 |
| 20260509014322 | 50 | 226 | 0.0 | 0.0 | 0.00 | 0.02 | 0.00 | 87 | 1016.0 |
| 20260509013449 | 50 | 226 | 0.0 | 0.0 | 0.00 | 0.02 | 0.00 | 88 | 1016.0 |
| 20260509013243 | 50 | 226 | 0.0 | 0.0 | 0.00 | 0.02 | 0.00 | 88 | 1016.1 |
| 20260509013035 | 50 | 226 | 0.0 | 0.0 | 0.00 | 0.02 | 0.00 | 88 | 1016.1 |
| 20260509012829 | 50 | 226 | 0.0 | 0.0 | 0.00 | 0.02 | 0.00 | 89 | 1016.0 |
| 20260509012627 | 50 | 226 | 0.0 | 0.0 | 0.00 | 0.02 | 0.00 | 89 | 1016.0 |
| 20260509012421 | 50 | 226 | 0.0 | 0.0 | 0.00 | 0.02 | 0.00 | 90 | 1016.1 |
| 20260509012221 | 50 | 226 | 0.0 | 0.0 | 0.00 | 0.02 | 0.00 | 90 | 1016.1 |
| 20260509012018 | 50 | 226 | 0.0 | 0.0 | 0.00 | 0.02 | 0.00 | 90 | 1016.2 |
| 20260509011137 | 50 | 232 | 0.0 | 0.0 | 0.00 | 0.02 | 0.00 | 90 | 1016.2 |
| 20260509010932 | 50 | 233 | 0.0 | 1.0 | 0.00 | 0.02 | 0.00 | 90 | 1016.3 |
| 20260509010727 | 50 | 230 | 0.0 | 1.0 | 0.00 | 0.02 | 0.00 | 89 | 1016.3 |
| 20260509010526 | 50 | 240 | 0.0 | 1.0 | 0.00 | 0.02 | 0.00 | 89 | 1016.2 |
| 20260509010320 | 50 | 232 | 0.0 | 2.0 | 0.00 | 0.02 | 0.00 | 89 | 1016.4 |
| 20260509010110 | 50 | 248 | 0.0 | 2.0 | 0.00 | 0.02 | 0.00 | 89 | 1016.3 |
| 20260509005900 | 50 | 240 | 0.0 | 1.0 | 0.00 | 0.02 | 0.00 | 89 | 1016.2 |
| 20260509005650 | 50 | 212 | 0.0 | 1.0 | 0.00 | 0.02 | 0.00 | 89 | 1016.2 |
| 20260509005441 | 50 | 217 | 0.0 | 0.0 | 0.00 | 0.02 | 0.00 | 89 | 1016.2 |
| 20260509005240 | 51 | 205 | 0.0 | 0.0 | 0.00 | 0.02 | 0.00 | 89 | 1016.2 |
| 20260509004354 | 51 | 198 | 0.0 | 4.0 | 0.00 | 0.02 | 0.00 | 89 | 1016.2 |
| 20260509004145 | 51 | 203 | 0.0 | 1.0 | 0.00 | 0.02 | 0.00 | 89 | 1016.4 |
| 20260509003618 | 50 | 215 | 0.0 | 1.0 | 0.00 | 0.02 | 0.00 | 89 | 1016.3 |
| 20260509003415 | 50 | 230 | 0.0 | 0.0 | 0.00 | 0.02 | 0.00 | 90 | 1016.3 |
| 20260509002850 | 50 | 244 | 0.0 | 0.0 | 0.00 | 0.02 | 0.00 | 90 | 1016.3 |
| 20260509002319 | 50 | 244 | 0.0 | 0.0 | 0.00 | 0.02 | 0.00 | 89 | 1016.4 |
| 20260509002120 | 50 | 244 | 0.0 | 0.0 | 0.00 | 0.02 | 0.00 | 89 | 1016.4 |
| 20260509001921 | 50 | 244 | 0.0 | 0.0 | 0.00 | 0.02 | 0.00 | 89 | 1016.4 |
| 20260509001712 | 51 | 244 | 0.0 | 0.0 | 0.00 | 0.02 | 0.00 | 89 | 1016.4 |
| 20260509001511 | 51 | 244 | 0.0 | 0.0 | 0.00 | 0.02 | 0.00 | 89 | 1016.4 |
| 20260509000639 | 50 | 245 | 0.0 | 0.0 | 0.00 | 0.02 | 0.00 | 89 | 1016.4 |
| 20260509000440 | 51 | 245 | 0.0 | 0.0 | 0.00 | 0.02 | 0.00 | 89 | 1016.5 |
| 20260509000234 | 51 | 245 | 0.0 | 0.0 | 0.00 | 0.02 | 0.00 | 89 | 1016.5 |
| 20260509000034 | 51 | 245 | 0.0 | 0.0 | 0.00 | 0.02 | 0.00 | 89 | 1016.5 |
| 20260508235506 | 51 | 245 | 0.0 | 0.0 | 0.00 | 0.02 | 0.00 | 88 | 1016.5 |
| 20260508235306 | 51 | 245 | 0.0 | 0.0 | 0.00 | 0.02 | 0.00 | 88 | 1016.4 |
| 20260508235053 | 51 | 245 | 0.0 | 0.0 | 0.00 | 0.02 | 0.00 | 88 | 1016.5 |
| 20260508233853 | 51 | 245 | 0.0 | 0.0 | 0.00 | 0.02 | 0.00 | 88 | 1016.5 |
| 20260508233648 | 51 | 245 | 0.0 | 0.0 | 0.00 | 0.02 | 0.00 | 88 | 1016.4 |
| 20260508233447 | 51 | 245 | 0.0 | 0.0 | 0.00 | 0.02 | 0.00 | 88 | 1016.4 |
| 20260508232606 | 50 | 245 | 0.0 | 0.0 | 0.00 | 0.02 | 0.00 | 88 | 1016.4 |
| 20260508232400 | 51 | 245 | 0.0 | 0.0 | 0.00 | 0.02 | 0.00 | 88 | 1016.4 |
| 20260508232156 | 51 | 245 | 0.0 | 0.0 | 0.00 | 0.02 | 0.00 | 88 | 1016.4 |
| 20260508231956 | 51 | 245 | 0.0 | 0.0 | 0.00 | 0.02 | 0.00 | 88 | 1016.4 |
| 20260508231752 | 51 | 245 | 0.0 | 0.0 | 0.00 | 0.02 | 0.00 | 88 | 1016.3 |
| 20260508231544 | 51 | 245 | 0.0 | 0.0 | 0.00 | 0.02 | 0.00 | 88 | 1016.4 |
| 20260508231338 | 51 | 245 | 0.0 | 0.0 | 0.00 | 0.02 | 0.00 | 88 | 1016.2 |
| 20260508231135 | 51 | 245 | 0.0 | 0.0 | 0.00 | 0.02 | 0.00 | 88 | 1016.4 |
| 20260508230932 | 51 | 245 | 0.0 | 0.0 | 0.00 | 0.02 | 0.00 | 88 | 1016.3 |
| 20260508230723 | 51 | 245 | 0.0 | 0.0 | 0.00 | 0.02 | 0.00 | 88 | 1016.3 |
| 20260508230516 | 51 | 245 | 0.0 | 0.0 | 0.00 | 0.02 | 0.00 | 88 | 1016.4 |
| 20260508230309 | 51 | 245 | 0.0 | 0.0 | 0.00 | 0.02 | 0.00 | 88 | 1016.3 |
| 20260508230104 | 51 | 245 | 0.0 | 0.0 | 0.00 | 0.02 | 0.00 | 88 | 1016.5 |
| 20260508225547 | 51 | 245 | 0.0 | 0.0 | 0.00 | 0.02 | 0.00 | 88 | 1016.4 |
| 20260508225029 | 51 | 245 | 0.0 | 0.0 | 0.00 | 0.02 | 0.00 | 88 | 1016.4 |
| 20260508224828 | 51 | 245 | 0.0 | 0.0 | 0.00 | 0.02 | 0.00 | 88 | 1016.5 |
| 20260508224624 | 51 | 245 | 0.0 | 0.0 | 0.00 | 0.02 | 0.00 | 88 | 1016.4 |
| 20260508224419 | 51 | 245 | 0.0 | 0.0 | 0.00 | 0.02 | 0.00 | 88 | 1016.4 |
| 20260508224209 | 51 | 245 | 0.0 | 0.0 | 0.00 | 0.02 | 0.00 | 87 | 1016.5 |
| 20260508224000 | 51 | 245 | 0.0 | 0.0 | 0.00 | 0.02 | 0.00 | 88 | 1016.5 |
| 20260508223750 | 51 | 245 | 0.0 | 0.0 | 0.00 | 0.02 | 0.00 | 88 | 1016.5 |
| 20260508223550 | 51 | 245 | 0.0 | 0.0 | 0.00 | 0.02 | 0.00 | 88 | 1016.5 |
| 20260508223342 | 51 | 245 | 0.0 | 0.0 | 0.00 | 0.02 | 0.00 | 89 | 1016.5 |
| 20260508223138 | 51 | 245 | 0.0 | 0.0 | 0.00 | 0.02 | 0.00 | 89 | 1016.5 |
| 20260508222615 | 50 | 245 | 0.0 | 0.0 | 0.00 | 0.02 | 0.00 | 90 | 1016.5 |
| 20260508222412 | 50 | 245 | 0.0 | 0.0 | 0.00 | 0.02 | 0.00 | 90 | 1016.6 |
| 20260508222208 | 50 | 245 | 0.0 | 3.0 | 0.00 | 0.02 | 0.00 | 91 | 1016.6 |
| 20260508222006 | 50 | 245 | 0.0 | 3.0 | 0.00 | 0.02 | 0.00 | 91 | 1016.6 |
| 20260508221800 | 50 | 243 | 0.0 | 3.0 | 0.00 | 0.02 | 0.00 | 92 | 1016.7 |
| 20260508221552 | 50 | 231 | 0.0 | 3.0 | 0.00 | 0.02 | 0.00 | 92 | 1016.7 |
| 20260508221346 | 50 | 231 | 0.0 | 3.0 | 0.00 | 0.02 | 0.00 | 92 | 1016.7 |
| 20260508221142 | 50 | 220 | 0.0 | 3.0 | 0.00 | 0.02 | 0.00 | 93 | 1016.7 |
| 20260508220935 | 50 | 231 | 0.0 | 3.0 | 0.00 | 0.02 | 0.00 | 93 | 1016.7 |
| 20260508220733 | 49 | 231 | 0.0 | 0.0 | 0.00 | 0.02 | 0.00 | 93 | 1016.7 |
| 20260508220528 | 49 | 252 | 0.0 | 0.0 | 0.00 | 0.02 | 0.00 | 92 | 1016.6 |
| 20260508220007 | 50 | 238 | 1.0 | 6.0 | 0.00 | 0.02 | 0.02 | 92 | 1016.7 |
| 20260508215446 | 50 | 243 | 2.0 | 6.0 | 0.00 | 0.02 | 0.02 | 91 | 1016.7 |
| 20260508215242 | 50 | 251 | 3.0 | 6.0 | 0.00 | 0.02 | 0.02 | 91 | 1016.7 |
| 20260508215038 | 50 | 223 | 3.0 | 6.0 | 0.00 | 0.02 | 0.02 | 91 | 1016.6 |
| 20260508214835 | 50 | 238 | 3.0 | 6.0 | 0.00 | 0.02 | 0.02 | 91 | 1016.7 |
| 20260508214633 | 50 | 234 | 3.0 | 6.0 | 0.00 | 0.02 | 0.02 | 91 | 1016.7 |
| 20260508214430 | 50 | 227 | 3.0 | 6.0 | 0.00 | 0.02 | 0.02 | 91 | 1016.8 |
| 20260508214229 | 50 | 237 | 3.0 | 6.0 | 0.00 | 0.02 | 0.02 | 91 | 1016.8 |
| 20260508214024 | 51 | 236 | 3.0 | 5.0 | 0.00 | 0.02 | 0.02 | 91 | 1016.7 |
| 20260508213814 | 51 | 241 | 2.0 | 5.0 | 0.00 | 0.02 | 0.02 | 91 | 1016.7 |
| 20260508213614 | 51 | 231 | 2.0 | 5.0 | 0.00 | 0.02 | 0.02 | 91 | 1016.7 |
| 20260508213414 | 51 | 244 | 1.0 | 4.0 | 0.00 | 0.02 | 0.02 | 91 | 1016.6 |
| 20260508213214 | 51 | 216 | 0.0 | 4.0 | 0.00 | 0.02 | 0.02 | 91 | 1016.7 |
| 20260508213008 | 51 | 239 | 0.0 | 2.0 | 0.00 | 0.02 | 0.02 | 91 | 1016.7 |
| 20260508212809 | 51 | 238 | 0.0 | 2.0 | 0.00 | 0.02 | 0.02 | 91 | 1016.8 |
| 20260508212558 | 51 | 288 | 0.0 | 2.0 | 0.00 | 0.02 | 0.02 | 90 | 1016.7 |
| 20260508212353 | 51 | 288 | 0.0 | 2.0 | 0.00 | 0.02 | 0.02 | 90 | 1016.6 |
| 20260508212153 | 51 | 243 | 0.0 | 2.0 | 0.00 | 0.02 | 0.02 | 90 | 1016.6 |
| 20260508211627 | 51 | 239 | 1.0 | 2.0 | 0.00 | 0.02 | 0.02 | 89 | 1016.5 |
| 20260508211420 | 52 | 238 | 1.0 | 2.0 | 0.00 | 0.02 | 0.02 | 89 | 1016.5 |
| 20260508211210 | 52 | 238 | 1.0 | 2.0 | 0.00 | 0.02 | 0.02 | 89 | 1016.5 |
| 20260508211010 | 52 | 239 | 1.0 | 2.0 | 0.00 | 0.02 | 0.02 | 89 | 1016.5 |
| 20260508210810 | 52 | 236 | 0.0 | 2.0 | 0.00 | 0.02 | 0.02 | 88 | 1016.5 |
| 20260508210608 | 52 | 238 | 0.0 | 2.0 | 0.00 | 0.02 | 0.02 | 88 | 1016.5 |
| 20260508210405 | 52 | 241 | 0.0 | 1.0 | 0.00 | 0.02 | 0.02 | 87 | 1016.4 |
| 20260508210158 | 53 | 232 | 0.0 | 1.0 | 0.00 | 0.02 | 0.02 | 86 | 1016.4 |
| 20260508205640 | 54 | 309 | 0.0 | 6.0 | 0.00 | 0.02 | 0.02 | 84 | 1016.3 |
| 20260508205429 | 54 | 252 | 0.0 | 6.0 | 0.00 | 0.02 | 0.02 | 82 | 1016.4 |
| 20260508205224 | 54 | 225 | 1.0 | 6.0 | 0.00 | 0.02 | 0.02 | 82 | 1016.2 |
| 20260508205020 | 53 | 249 | 1.0 | 6.0 | 0.00 | 0.02 | 0.02 | 83 | 1016.3 |
| 20260508204813 | 53 | 229 | 1.0 | 6.0 | 0.00 | 0.02 | 0.02 | 83 | 1016.2 |
| 20260508204604 | 53 | 269 | 1.0 | 6.0 | 0.00 | 0.02 | 0.02 | 84 | 1016.2 |
| 20260508204044 | 53 | 221 | 1.0 | 5.0 | 0.00 | 0.02 | 0.02 | 85 | 1016.2 |
| 20260508203844 | 52 | 191 | 2.0 | 5.0 | 0.00 | 0.02 | 0.02 | 85 | 1016.2 |
| 20260508203641 | 52 | 210 | 2.0 | 5.0 | 0.00 | 0.02 | 0.02 | 86 | 1016.2 |
| 20260508203437 | 52 | 219 | 2.0 | 5.0 | 0.00 | 0.02 | 0.02 | 86 | 1016.2 |
| 20260508203227 | 52 | 214 | 2.0 | 5.0 | 0.00 | 0.02 | 0.02 | 86 | 1016.2 |
| 20260508203024 | 52 | 253 | 1.0 | 9.0 | 0.00 | 0.02 | 0.02 | 87 | 1016.2 |
| 20260508202824 | 52 | 252 | 2.0 | 9.0 | 0.00 | 0.02 | 0.02 | 87 | 1016.2 |
| 20260508202617 | 52 | 240 | 2.0 | 9.0 | 0.00 | 0.02 | 0.02 | 88 | 1016.2 |
| 20260508202411 | 52 | 232 | 2.0 | 9.0 | 0.00 | 0.02 | 0.02 | 88 | 1016.2 |
| 20260508202206 | 52 | 229 | 4.0 | 11.0 | 0.00 | 0.02 | 0.02 | 88 | 1016.2 |
| 20260508202002 | 52 | 232 | 4.0 | 11.0 | 0.00 | 0.02 | 0.02 | 88 | 1016.2 |
| 20260508201755 | 52 | 202 | 5.0 | 11.0 | 0.00 | 0.02 | 0.02 | 88 | 1016.1 |
| 20260508201553 | 52 | 237 | 5.0 | 11.0 | 0.00 | 0.02 | 0.02 | 88 | 1016.2 |
| 20260508201350 | 52 | 231 | 6.0 | 11.0 | 0.00 | 0.02 | 0.02 | 87 | 1016.2 |
| 20260508201146 | 53 | 238 | 6.0 | 11.0 | 0.00 | 0.02 | 0.02 | 87 | 1016.1 |
| 20260508200941 | 53 | 233 | 6.0 | 11.0 | 0.00 | 0.02 | 0.02 | 86 | 1016.2 |
| 20260508200735 | 53 | 235 | 5.0 | 11.0 | 0.00 | 0.02 | 0.02 | 86 | 1016.1 |
| 20260508200527 | 53 | 229 | 4.0 | 11.0 | 0.00 | 0.02 | 0.02 | 86 | 1016.2 |
| 20260508200319 | 53 | 246 | 3.0 | 11.0 | 0.00 | 0.02 | 0.02 | 85 | 1016.1 |
| 20260508200116 | 53 | 244 | 2.0 | 8.0 | 0.00 | 0.02 | 0.02 | 85 | 1016.2 |
| 20260508195907 | 53 | 241 | 1.0 | 8.0 | 0.00 | 0.02 | 0.02 | 84 | 1016.1 |
| 20260508195025 | 53 | 213 | 0.0 | 2.0 | 0.00 | 0.02 | 0.02 | 80 | 1016.0 |
| 20260508194819 | 53 | 165 | 0.0 | 0.0 | 0.00 | 0.02 | 0.02 | 80 | 1015.9 |
| 20260508194613 | 53 | 117 | 1.0 | 3.0 | 0.00 | 0.02 | 0.02 | 80 | 1015.9 |
| 20260508194405 | 53 | 117 | 1.0 | 5.0 | 0.00 | 0.02 | 0.02 | 80 | 1015.8 |
| 20260508194204 | 53 | 98 | 1.0 | 5.0 | 0.00 | 0.02 | 0.02 | 82 | 1015.8 |
| 20260508193954 | 53 | 101 | 1.0 | 5.0 | 0.00 | 0.02 | 0.02 | 83 | 1015.8 |
| 20260508193748 | 52 | 112 | 1.0 | 5.0 | 0.00 | 0.02 | 0.02 | 83 | 1015.8 |
| 20260508193546 | 52 | 119 | 1.0 | 5.0 | 0.00 | 0.02 | 0.02 | 83 | 1015.8 |
| 20260508193342 | 52 | 108 | 2.0 | 7.0 | 0.00 | 0.02 | 0.02 | 84 | 1015.7 |
| 20260508193142 | 52 | 114 | 3.0 | 7.0 | 0.00 | 0.02 | 0.02 | 85 | 1015.7 |
| 20260508192940 | 52 | 117 | 4.0 | 7.0 | 0.00 | 0.02 | 0.02 | 85 | 1015.6 |
| 20260508192736 | 52 | 129 | 4.0 | 7.0 | 0.00 | 0.02 | 0.02 | 85 | 1015.6 |
| 20260508192536 | 52 | 111 | 4.0 | 7.0 | 0.00 | 0.02 | 0.02 | 86 | 1015.6 |
| 20260508192335 | 52 | 117 | 4.0 | 7.0 | 0.00 | 0.02 | 0.02 | 86 | 1015.5 |
| 20260508192130 | 52 | 116 | 4.0 | 7.0 | 0.00 | 0.02 | 0.02 | 86 | 1015.5 |
| 20260508191920 | 52 | 128 | 3.0 | 7.0 | 0.00 | 0.02 | 0.02 | 85 | 1015.5 |
| 20260508191720 | 52 | 97 | 3.0 | 7.0 | 0.00 | 0.02 | 0.02 | 85 | 1015.4 |
| 20260508191518 | 52 | 108 | 4.0 | 7.0 | 0.00 | 0.02 | 0.02 | 85 | 1015.4 |
| 20260508190951 | 52 | 111 | 4.0 | 6.0 | 0.00 | 0.02 | 0.02 | 85 | 1015.3 |
| 20260508190741 | 52 | 125 | 3.0 | 6.0 | 0.00 | 0.02 | 0.02 | 85 | 1015.3 |
| 20260508190220 | 52 | 108 | 3.0 | 6.0 | 0.00 | 0.02 | 0.02 | 85 | 1015.1 |
| 20260508190017 | 53 | 103 | 3.0 | 6.0 | 0.00 | 0.02 | 0.02 | 85 | 1015.2 |
| 20260508185456 | 53 | 108 | 3.0 | 6.0 | 0.00 | 0.02 | 0.02 | 85 | 1015.0 |
| 20260508185252 | 53 | 122 | 3.0 | 6.0 | 0.00 | 0.02 | 0.02 | 85 | 1015.0 |
| 20260508185041 | 53 | 116 | 3.0 | 6.0 | 0.00 | 0.02 | 0.02 | 85 | 1015.0 |
| 20260508184843 | 53 | 105 | 3.0 | 6.0 | 0.00 | 0.02 | 0.02 | 85 | 1015.0 |
| 20260508184632 | 53 | 111 | 3.0 | 6.0 | 0.00 | 0.02 | 0.02 | 85 | 1015.0 |
| 20260508184425 | 53 | 111 | 3.0 | 6.0 | 0.00 | 0.02 | 0.02 | 85 | 1014.9 |
| 20260508184214 | 53 | 108 | 3.0 | 5.0 | 0.00 | 0.02 | 0.02 | 85 | 1014.9 |
| 20260508184007 | 53 | 161 | 2.0 | 5.0 | 0.00 | 0.02 | 0.02 | 85 | 1014.9 |
| 20260508183800 | 53 | 129 | 2.0 | 4.0 | 0.00 | 0.02 | 0.02 | 84 | 1014.8 |
| 20260508183600 | 53 | 121 | 2.0 | 4.0 | 0.00 | 0.02 | 0.02 | 84 | 1014.8 |
| 20260508183354 | 54 | 117 | 1.0 | 4.0 | 0.00 | 0.02 | 0.02 | 84 | 1014.8 |
| 20260508182832 | 54 | 130 | 1.0 | 5.0 | 0.00 | 0.02 | 0.02 | 83 | 1014.6 |
| 20260508181944 | 54 | 94 | 1.0 | 5.0 | 0.00 | 0.02 | 0.02 | 83 | 1014.6 |
| 20260508181739 | 54 | 126 | 1.0 | 5.0 | 0.00 | 0.02 | 0.02 | 82 | 1014.6 |
| 20260508181538 | 54 | 89 | 1.0 | 5.0 | 0.00 | 0.02 | 0.02 | 82 | 1014.6 |
| 20260508181335 | 54 | 96 | 1.0 | 5.0 | 0.00 | 0.02 | 0.02 | 82 | 1014.6 |
| 20260508181132 | 54 | 58 | 0.0 | 3.0 | 0.00 | 0.02 | 0.02 | 83 | 1014.6 |
| 20260508180930 | 54 | 111 | 0.0 | 3.0 | 0.00 | 0.02 | 0.02 | 85 | 1014.6 |
| 20260508180357 | 54 | 102 | 1.0 | 3.0 | 0.00 | 0.02 | 0.02 | 87 | 1014.5 |
| 20260508180146 | 54 | 102 | 1.0 | 6.0 | 0.00 | 0.02 | 0.02 | 87 | 1014.5 |
| 20260508175941 | 54 | 102 | 1.0 | 6.0 | 0.00 | 0.02 | 0.02 | 87 | 1014.5 |
| 20260508175739 | 54 | 136 | 0.0 | 6.0 | 0.00 | 0.02 | 0.02 | 86 | 1014.5 |
| 20260508175207 | 54 | 134 | 1.0 | 6.0 | 0.00 | 0.02 | 0.02 | 85 | 1014.5 |
| 20260508175008 | 54 | 87 | 1.0 | 6.0 | 0.00 | 0.02 | 0.02 | 84 | 1014.4 |
| 20260508174805 | 54 | 67 | 2.0 | 6.0 | 0.03 | 0.02 | 0.02 | 83 | 1014.3 |
| 20260508174601 | 55 | 47 | 2.0 | 6.0 | 0.03 | 0.02 | 0.02 | 83 | 1014.3 |
| 20260508174355 | 55 | 40 | 2.0 | 6.0 | 0.03 | 0.02 | 0.02 | 81 | 1014.4 |
| 20260508174148 | 55 | 103 | 2.0 | 4.0 | 0.04 | 0.02 | 0.02 | 80 | 1014.4 |
| 20260508173633 | 55 | 49 | 1.0 | 4.0 | 0.04 | 0.02 | 0.02 | 78 | 1014.2 |
| 20260508173432 | 55 | 75 | 1.0 | 3.0 | 0.04 | 0.02 | 0.02 | 77 | 1014.1 |
| 20260508173227 | 55 | 34 | 0.0 | 3.0 | 0.04 | 0.01 | 0.01 | 77 | 1014.2 |
| 20260508173018 | 54 | 41 | 0.0 | 3.0 | 0.06 | 0.01 | 0.01 | 78 | 1014.2 |
| 20260508172453 | 54 | 232 | 0.0 | 0.0 | 0.11 | 0.01 | 0.01 | 79 | 1014.1 |
| 20260508172243 | 54 | 232 | 0.0 | 0.0 | 0.00 | 0.00 | 0.00 | 80 | 1014.1 |
| 20260508172036 | 55 | 232 | 0.0 | 7.0 | 0.00 | 0.00 | 0.00 | 81 | 1014.1 |
| 20260508171504 | 56 | 290 | 0.0 | 3.0 | 0.00 | 0.00 | 0.00 | 79 | 1014.1 |
| 20260508171304 | 56 | 282 | 0.0 | 5.0 | 0.00 | 0.00 | 0.00 | 80 | 1014.0 |
| 20260508171105 | 57 | 129 | 1.0 | 5.0 | 0.00 | 0.00 | 0.00 | 78 | 1013.9 |
| 20260508170903 | 57 | 125 | 1.0 | 5.0 | 0.00 | 0.00 | 0.00 | 77 | 1013.9 |
| 20260508170653 | 57 | 134 | 1.0 | 5.0 | 0.00 | 0.00 | 0.00 | 77 | 1013.7 |
| 20260508170451 | 57 | 126 | 2.0 | 5.0 | 0.00 | 0.00 | 0.00 | 77 | 1013.8 |
| 20260508170241 | 57 | 98 | 2.0 | 5.0 | 0.00 | 0.00 | 0.00 | 77 | 1013.7 |
| 20260508165714 | 57 | 88 | 2.0 | 5.0 | 0.00 | 0.00 | 0.00 | 77 | 1013.6 |
| 20260508165508 | 57 | 103 | 2.0 | 5.0 | 0.00 | 0.00 | 0.00 | 77 | 1013.6 |
| 20260508165306 | 57 | 127 | 2.0 | 7.0 | 0.00 | 0.00 | 0.00 | 77 | 1013.6 |
| 20260508165103 | 57 | 93 | 2.0 | 7.0 | 0.00 | 0.00 | 0.00 | 77 | 1013.5 |
| 20260508164538 | 58 | 111 | 2.0 | 7.0 | 0.00 | 0.00 | 0.00 | 78 | 1013.5 |
| 20260508164328 | 58 | 93 | 2.0 | 7.0 | 0.00 | 0.00 | 0.00 | 77 | 1013.5 |
| 20260508163805 | 59 | 92 | 3.0 | 7.0 | 0.00 | 0.00 | 0.00 | 77 | 1013.4 |
| 20260508163606 | 59 | 75 | 3.0 | 7.0 | 0.00 | 0.00 | 0.00 | 76 | 1013.4 |
| 20260508163404 | 59 | 75 | 2.0 | 7.0 | 0.00 | 0.00 | 0.00 | 75 | 1013.5 |
| 20260508163154 | 59 | 76 | 2.0 | 6.0 | 0.00 | 0.00 | 0.00 | 74 | 1013.4 |
| 20260508162953 | 59 | 39 | 1.0 | 6.0 | 0.00 | 0.00 | 0.00 | 74 | 1013.5 |
| 20260508162751 | 60 | 52 | 1.0 | 5.0 | 0.00 | 0.00 | 0.00 | 73 | 1013.5 |
| 20260508162549 | 60 | 98 | 1.0 | 4.0 | 0.00 | 0.00 | 0.00 | 72 | 1013.5 |
| 20260508162345 | 60 | 59 | 1.0 | 4.0 | 0.00 | 0.00 | 0.00 | 72 | 1013.4 |
| 20260508162144 | 60 | 100 | 1.0 | 3.0 | 0.00 | 0.00 | 0.00 | 73 | 1013.4 |
| 20260508161937 | 60 | 96 | 1.0 | 3.0 | 0.00 | 0.00 | 0.00 | 72 | 1013.3 |
| 20260508161733 | 60 | 98 | 1.0 | 3.0 | 0.00 | 0.00 | 0.00 | 72 | 1013.3 |
| 20260508161531 | 60 | 108 | 1.0 | 4.0 | 0.00 | 0.00 | 0.00 | 73 | 1013.3 |
| 20260508161325 | 60 | 112 | 1.0 | 4.0 | 0.00 | 0.00 | 0.00 | 73 | 1013.3 |
| 20260508161121 | 60 | 89 | 1.0 | 4.0 | 0.00 | 0.00 | 0.00 | 73 | 1013.2 |
| 20260508160917 | 60 | 105 | 1.0 | 4.0 | 0.00 | 0.00 | 0.00 | 72 | 1013.1 |
| 20260508160710 | 60 | 134 | 1.0 | 4.0 | 0.00 | 0.00 | 0.00 | 72 | 1013.0 |
| 20260508160510 | 60 | 113 | 2.0 | 8.0 | 0.00 | 0.00 | 0.00 | 72 | 1013.0 |
| 20260508160301 | 60 | 104 | 2.0 | 8.0 | 0.00 | 0.00 | 0.00 | 71 | 1013.0 |
| 20260508160054 | 60 | 105 | 2.0 | 8.0 | 0.00 | 0.00 | 0.00 | 70 | 1013.0 |
| 20260508155845 | 60 | 49 | 2.0 | 8.0 | 0.00 | 0.00 | 0.00 | 70 | 1013.0 |
| 20260508155636 | 60 | 63 | 2.0 | 8.0 | 0.00 | 0.00 | 0.00 | 70 | 1013.0 |
| 20260508155104 | 61 | 85 | 3.0 | 8.0 | 0.00 | 0.00 | 0.00 | 70 | 1013.0 |
| 20260508154904 | 61 | 86 | 3.0 | 8.0 | 0.00 | 0.00 | 0.00 | 70 | 1013.0 |
| 20260508154703 | 61 | 109 | 2.0 | 8.0 | 0.00 | 0.00 | 0.00 | 68 | 1012.9 |
| 20260508154459 | 62 | 70 | 2.0 | 6.0 | 0.00 | 0.00 | 0.00 | 68 | 1013.0 |
| 20260508153925 | 62 | 60 | 1.0 | 5.0 | 0.00 | 0.00 | 0.00 | 65 | 1012.9 |
| 20260508153724 | 63 | 56 | 0.0 | 3.0 | 0.00 | 0.00 | 0.00 | 62 | 1013.0 |
| 20260508153525 | 63 | 40 | 0.0 | 3.0 | 0.00 | 0.00 | 0.00 | 63 | 1012.9 |
| 20260508153318 | 63 | 75 | 0.0 | 3.0 | 0.00 | 0.00 | 0.00 | 64 | 1013.0 |
| 20260508153110 | 63 | 53 | 0.0 | 2.0 | 0.00 | 0.00 | 0.00 | 64 | 1012.9 |
| 20260508152901 | 63 | 53 | 0.0 | 2.0 | 0.00 | 0.00 | 0.00 | 63 | 1012.9 |
| 20260508152657 | 63 | 39 | 0.0 | 2.0 | 0.00 | 0.00 | 0.00 | 66 | 1012.9 |
| 20260508152447 | 63 | 45 | 0.0 | 2.0 | 0.00 | 0.00 | 0.00 | 64 | 1012.9 |
| 20260508152239 | 63 | 288 | 0.0 | 2.0 | 0.00 | 0.00 | 0.00 | 65 | 1012.9 |
| 20260508152032 | 63 | 36 | 0.0 | 2.0 | 0.00 | 0.00 | 0.00 | 64 | 1012.8 |
| 20260508151831 | 63 | 51 | 0.0 | 2.0 | 0.00 | 0.00 | 0.00 | 65 | 1012.8 |
| 20260508151628 | 63 | 60 | 0.0 | 2.0 | 0.00 | 0.00 | 0.00 | 65 | 1012.8 |
| 20260508151104 | 63 | 56 | 0.0 | 2.0 | 0.00 | 0.00 | 0.00 | 65 | 1013.0 |
| 20260508150541 | 63 | 73 | 0.0 | 1.0 | 0.00 | 0.00 | 0.00 | 64 | 1013.1 |
| 20260508150331 | 63 | 72 | 0.0 | 1.0 | 0.00 | 0.00 | 0.00 | 63 | 1013.1 |
| 20260508145805 | 63 | 74 | 0.0 | 2.0 | 0.00 | 0.00 | 0.00 | 66 | 1013.1 |
| 20260508145602 | 62 | 354 | 0.0 | 0.0 | 0.00 | 0.00 | 0.00 | 66 | 1013.1 |
| 20260508145358 | 62 | 267 | 0.0 | 0.0 | 0.00 | 0.00 | 0.00 | 66 | 1013.2 |
| 20260508145151 | 62 | 267 | 0.0 | 0.0 | 0.00 | 0.00 | 0.00 | 64 | 1013.2 |
| 20260508144948 | 62 | 59 | 0.0 | 0.0 | 0.00 | 0.00 | 0.00 | 64 | 1013.2 |
| 20260508144749 | 62 | 59 | 0.0 | 2.0 | 0.00 | 0.00 | 0.00 | 64 | 1013.2 |
| 20260508144539 | 62 | 51 | 0.0 | 2.0 | 0.00 | 0.00 | 0.00 | 63 | 1013.2 |
| 20260508144331 | 62 | 68 | 0.0 | 4.0 | 0.00 | 0.00 | 0.00 | 63 | 1013.2 |
| 20260508143757 | 63 | 41 | 0.0 | 4.0 | 0.00 | 0.00 | 0.00 | 63 | 1013.4 |
| 20260508143550 | 63 | 47 | 0.0 | 4.0 | 0.00 | 0.00 | 0.00 | 62 | 1013.4 |
| 20260508143027 | 63 | 57 | 0.0 | 4.0 | 0.00 | 0.00 | 0.00 | 63 | 1013.4 |
| 20260508142816 | 63 | 58 | 0.0 | 4.0 | 0.00 | 0.00 | 0.00 | 63 | 1013.4 |
| 20260508142615 | 63 | 65 | 0.0 | 4.0 | 0.00 | 0.00 | 0.00 | 62 | 1013.4 |
| 20260508142415 | 63 | 39 | 0.0 | 4.0 | 0.00 | 0.00 | 0.00 | 65 | 1013.4 |
| 20260508142214 | 63 | 45 | 0.0 | 4.0 | 0.00 | 0.00 | 0.00 | 65 | 1013.4 |
| 20260508142005 | 63 | 259 | 1.0 | 4.0 | 0.00 | 0.00 | 0.00 | 64 | 1013.4 |
| 20260508141804 | 63 | 283 | 0.0 | 5.0 | 0.00 | 0.00 | 0.00 | 64 | 1013.5 |
| 20260508141600 | 63 | 222 | 1.0 | 5.0 | 0.00 | 0.00 | 0.00 | 64 | 1013.4 |
| 20260508141350 | 63 | 71 | 1.0 | 5.0 | 0.00 | 0.00 | 0.00 | 64 | 1013.5 |
| 20260508140826 | 62 | 85 | 2.0 | 5.0 | 0.00 | 0.00 | 0.00 | 65 | 1013.6 |
| 20260508135948 | 63 | 39 | 0.0 | 5.0 | 0.00 | 0.00 | 0.00 | 64 | 1013.7 |
| 20260508135747 | 63 | 50 | 0.0 | 3.0 | 0.00 | 0.00 | 0.00 | 67 | 1013.7 |
| 20260508135540 | 63 | 46 | 0.0 | 0.0 | 0.00 | 0.00 | 0.00 | 68 | 1013.7 |
| 20260508135340 | 63 | 71 | 0.0 | 1.0 | 0.00 | 0.00 | 0.00 | 66 | 1013.7 |
| 20260508135130 | 63 | 49 | 0.0 | 1.0 | 0.00 | 0.00 | 0.00 | 66 | 1013.7 |
| 20260508134600 | 62 | 127 | 0.0 | 1.0 | 0.00 | 0.00 | 0.00 | 66 | 1013.7 |
| 20260508134354 | 62 | 124 | 1.0 | 0.0 | 0.00 | 0.00 | 0.00 | 64 | 1013.7 |
| 20260508134150 | 62 | 124 | 2.0 | 5.0 | 0.00 | 0.00 | 0.00 | 65 | 1013.8 |
| 20260508133951 | 62 | 99 | 2.0 | 5.0 | 0.00 | 0.00 | 0.00 | 65 | 1013.8 |
| 20260508133746 | 62 | 41 | 2.0 | 5.0 | 0.00 | 0.00 | 0.00 | 65 | 1013.8 |
| 20260508133537 | 62 | 45 | 2.0 | 5.0 | 0.00 | 0.00 | 0.00 | 65 | 1014.0 |
| 20260508132702 | 62 | 64 | 0.0 | 3.0 | 0.00 | 0.00 | 0.00 | 67 | 1014.0 |
| 20260508132458 | 62 | 214 | 0.0 | 0.0 | 0.00 | 0.00 | 0.00 | 70 | 1013.9 |
| 20260508132256 | 61 | 214 | 0.0 | 1.0 | 0.00 | 0.00 | 0.00 | 69 | 1014.0 |
| 20260508132056 | 61 | 238 | 0.0 | 0.0 | 0.00 | 0.00 | 0.00 | 68 | 1014.0 |
| 20260508131847 | 61 | 284 | 0.0 | 1.0 | 0.00 | 0.00 | 0.00 | 68 | 1014.0 |
| 20260508131642 | 61 | 283 | 0.0 | 1.0 | 0.00 | 0.00 | 0.00 | 68 | 1014.0 |
| 20260508131119 | 62 | 277 | 1.0 | 4.0 | 0.00 | 0.00 | 0.00 | 67 | 1014.0 |
| 20260508130916 | 62 | 293 | 1.0 | 4.0 | 0.00 | 0.00 | 0.00 | 68 | 1014.0 |
| 20260508130355 | 63 | 45 | 2.0 | 10.0 | 0.00 | 0.00 | 0.00 | 67 | 1014.1 |
| 20260508130150 | 63 | 299 | 2.0 | 10.0 | 0.00 | 0.00 | 0.00 | 68 | 1014.0 |
| 20260508125940 | 62 | 131 | 3.0 | 10.0 | 0.00 | 0.00 | 0.00 | 68 | 1014.1 |
| 20260508125741 | 62 | 68 | 3.0 | 10.0 | 0.00 | 0.00 | 0.00 | 68 | 1014.1 |
| 20260508125535 | 62 | 58 | 3.0 | 10.0 | 0.00 | 0.00 | 0.00 | 67 | 1014.1 |
| 20260508125332 | 62 | 44 | 2.0 | 10.0 | 0.00 | 0.00 | 0.00 | 68 | 1014.0 |
| 20260508125122 | 63 | 45 | 2.0 | 10.0 | 0.00 | 0.00 | 0.00 | 67 | 1014.0 |
| 20260508124917 | 63 | 87 | 1.0 | 10.0 | 0.00 | 0.00 | 0.00 | 69 | 1014.0 |
| 20260508124717 | 62 | 42 | 1.0 | 7.0 | 0.00 | 0.00 | 0.00 | 68 | 1014.0 |
| 20260508124157 | 62 | 66 | 2.0 | 10.0 | 0.00 | 0.00 | 0.00 | 65 | 1014.2 |
| 20260508123956 | 62 | 63 | 1.0 | 10.0 | 0.00 | 0.00 | 0.00 | 69 | 1014.1 |
| 20260508123438 | 62 | 50 | 2.0 | 10.0 | 0.00 | 0.00 | 0.00 | 69 | 1014.1 |
| 20260508123228 | 62 | 277 | 2.0 | 10.0 | 0.00 | 0.00 | 0.00 | 67 | 1014.1 |
| 20260508123025 | 62 | 280 | 2.0 | 10.0 | 0.00 | 0.00 | 0.00 | 70 | 1014.2 |
| 20260508122824 | 62 | 39 | 3.0 | 10.0 | 0.00 | 0.00 | 0.00 | 68 | 1014.1 |
| 20260508122306 | 62 | 60 | 2.0 | 7.0 | 0.00 | 0.00 | 0.00 | 71 | 1014.2 |
| 20260508122100 | 61 | 43 | 2.0 | 6.0 | 0.00 | 0.00 | 0.00 | 71 | 1014.2 |
| 20260508121851 | 61 | 44 | 2.0 | 6.0 | 0.00 | 0.00 | 0.00 | 69 | 1014.1 |
| 20260508121326 | 61 | 40 | 1.0 | 6.0 | 0.00 | 0.00 | 0.00 | 70 | 1014.2 |
| 20260508121124 | 61 | 44 | 1.0 | 7.0 | 0.00 | 0.00 | 0.00 | 71 | 1014.3 |
| 20260508120551 | 61 | 44 | 1.0 | 7.0 | 0.00 | 0.00 | 0.00 | 66 | 1014.2 |
| 20260508120351 | 61 | 63 | 2.0 | 7.0 | 0.00 | 0.00 | 0.00 | 69 | 1014.2 |
| 20260508120142 | 61 | 75 | 3.0 | 7.0 | 0.00 | 0.00 | 0.00 | 70 | 1014.3 |
| 20260508115933 | 61 | 44 | 2.0 | 7.0 | 0.00 | 0.00 | 0.00 | 69 | 1014.2 |
| 20260508115729 | 61 | 61 | 2.0 | 7.0 | 0.00 | 0.00 | 0.00 | 70 | 1014.2 |
| 20260508115523 | 61 | 337 | 2.0 | 7.0 | 0.00 | 0.00 | 0.00 | 70 | 1014.2 |
| 20260508115316 | 61 | 44 | 2.0 | 7.0 | 0.00 | 0.00 | 0.00 | 69 | 1014.3 |
| 20260508115117 | 61 | 29 | 2.0 | 6.0 | 0.00 | 0.00 | 0.00 | 71 | 1014.3 |
| 20260508114906 | 61 | 40 | 1.0 | 6.0 | 0.00 | 0.00 | 0.00 | 70 | 1014.3 |
| 20260508114702 | 61 | 53 | 2.0 | 6.0 | 0.00 | 0.00 | 0.00 | 67 | 1014.3 |
| 20260508114500 | 61 | 39 | 1.0 | 6.0 | 0.00 | 0.00 | 0.00 | 68 | 1014.3 |
| 20260508114300 | 61 | 56 | 0.0 | 6.0 | 0.00 | 0.00 | 0.00 | 70 | 1014.4 |
| 20260508114059 | 61 | 85 | 1.0 | 6.0 | 0.00 | 0.00 | 0.00 | 68 | 1014.4 |
| 20260508113856 | 61 | 46 | 1.0 | 6.0 | 0.00 | 0.00 | 0.00 | 68 | 1014.3 |
| 20260508113654 | 61 | 290 | 0.0 | 6.0 | 0.00 | 0.00 | 0.00 | 69 | 1014.4 |
| 20260508113130 | 60 | 46 | 1.0 | 6.0 | 0.00 | 0.00 | 0.00 | 68 | 1014.2 |
| 20260508112928 | 60 | 78 | 1.0 | 6.0 | 0.00 | 0.00 | 0.00 | 67 | 1014.3 |
| 20260508112723 | 60 | 100 | 1.0 | 6.0 | 0.00 | 0.00 | 0.00 | 67 | 1014.3 |
| 20260508112514 | 60 | 37 | 1.0 | 6.0 | 0.00 | 0.00 | 0.00 | 68 | 1014.3 |
| 20260508112311 | 60 | 289 | 1.0 | 6.0 | 0.00 | 0.00 | 0.00 | 67 | 1014.5 |
| 20260508112106 | 60 | 288 | 1.0 | 6.0 | 0.00 | 0.00 | 0.00 | 68 | 1014.5 |
| 20260508111904 | 61 | 51 | 0.0 | 4.0 | 0.00 | 0.00 | 0.00 | 68 | 1014.5 |
| 20260508111654 | 61 | 276 | 0.0 | 4.0 | 0.00 | 0.00 | 0.00 | 71 | 1014.5 |
| 20260508111125 | 60 | 357 | 0.0 | 7.0 | 0.00 | 0.00 | 0.00 | 70 | 1014.4 |
| 20260508110248 | 60 | 232 | 2.0 | 6.0 | 0.00 | 0.00 | 0.00 | 70 | 1014.4 |
| 20260508110047 | 60 | 287 | 2.0 | 6.0 | 0.00 | 0.00 | 0.00 | 72 | 1014.4 |
| 20260508105841 | 60 | 22 | 2.0 | 6.0 | 0.00 | 0.00 | 0.00 | 73 | 1014.5 |
| 20260508105632 | 60 | 43 | 1.0 | 6.0 | 0.00 | 0.00 | 0.00 | 71 | 1014.5 |
| 20260508105424 | 60 | 59 | 1.0 | 4.0 | 0.00 | 0.00 | 0.00 | 71 | 1014.5 |
| 20260508105221 | 60 | 294 | 1.0 | 4.0 | 0.00 | 0.00 | 0.00 | 73 | 1014.6 |
| 20260508105013 | 60 | 68 | 0.0 | 3.0 | 0.00 | 0.00 | 0.00 | 74 | 1014.6 |
| 20260508104810 | 59 | 283 | 1.0 | 7.0 | 0.00 | 0.00 | 0.00 | 72 | 1014.6 |
| 20260508104254 | 59 | 311 | 1.0 | 6.0 | 0.00 | 0.00 | 0.00 | 73 | 1014.6 |
| 20260508104047 | 59 | 203 | 2.0 | 6.0 | 0.00 | 0.00 | 0.00 | 75 | 1014.6 |
| 20260508103844 | 59 | 43 | 2.0 | 6.0 | 0.00 | 0.00 | 0.00 | 74 | 1014.6 |
| 20260508103640 | 59 | 44 | 1.0 | 6.0 | 0.00 | 0.00 | 0.00 | 74 | 1014.6 |
| 20260508103436 | 59 | 55 | 1.0 | 6.0 | 0.00 | 0.00 | 0.00 | 72 | 1014.6 |
| 20260508103234 | 59 | 44 | 1.0 | 6.0 | 0.00 | 0.00 | 0.00 | 72 | 1014.6 |
| 20260508103025 | 60 | 32 | 0.0 | 6.0 | 0.00 | 0.00 | 0.00 | 73 | 1014.6 |
| 20260508102826 | 60 | 285 | 0.0 | 4.0 | 0.00 | 0.00 | 0.00 | 76 | 1014.8 |
| 20260508102625 | 60 | 276 | 0.0 | 4.0 | 0.00 | 0.00 | 0.00 | 78 | 1014.6 |
| 20260508102415 | 59 | 78 | 0.0 | 4.0 | 0.00 | 0.00 | 0.00 | 77 | 1014.7 |
| 20260508102212 | 59 | 73 | 0.0 | 5.0 | 0.00 | 0.00 | 0.00 | 76 | 1014.7 |
| 20260508102005 | 59 | 101 | 1.0 | 5.0 | 0.00 | 0.00 | 0.00 | 78 | 1014.8 |
| 20260508101758 | 59 | 274 | 1.0 | 5.0 | 0.00 | 0.00 | 0.00 | 77 | 1014.8 |
| 20260508101554 | 58 | 262 | 2.0 | 5.0 | 0.00 | 0.00 | 0.00 | 79 | 1014.8 |
| 20260508101355 | 58 | 44 | 2.0 | 5.0 | 0.00 | 0.00 | 0.00 | 77 | 1014.8 |
| 20260508101150 | 58 | 70 | 2.0 | 5.0 | 0.00 | 0.00 | 0.00 | 76 | 1014.8 |
| 20260508100941 | 58 | 248 | 2.0 | 5.0 | 0.00 | 0.00 | 0.00 | 79 | 1014.8 |
| 20260508100734 | 58 | 54 | 1.0 | 5.0 | 0.00 | 0.00 | 0.00 | 78 | 1014.8 |
| 20260508100526 | 58 | 60 | 1.0 | 5.0 | 0.00 | 0.00 | 0.00 | 76 | 1014.8 |
| 20260508100318 | 58 | 29 | 1.0 | 5.0 | 0.00 | 0.00 | 0.00 | 76 | 1014.8 |
| 20260508100113 | 58 | 46 | 1.0 | 4.0 | 0.00 | 0.00 | 0.00 | 79 | 1014.8 |
| 20260508095908 | 58 | 297 | 1.0 | 4.0 | 0.00 | 0.00 | 0.00 | 79 | 1014.7 |
| 20260508095343 | 58 | 236 | 0.0 | 4.0 | 0.00 | 0.00 | 0.00 | 77 | 1014.8 |
| 20260508095139 | 58 | 262 | 0.0 | 4.0 | 0.00 | 0.00 | 0.00 | 74 | 1014.8 |
| 20260508094936 | 59 | 295 | 0.0 | 3.0 | 0.00 | 0.00 | 0.00 | 78 | 1014.7 |
| 20260508094733 | 58 | 252 | 0.0 | 0.0 | 0.00 | 0.00 | 0.00 | 75 | 1014.7 |
| 20260508094522 | 58 | 321 | 0.0 | 0.0 | 0.00 | 0.00 | 0.00 | 76 | 1014.8 |
| 20260508094004 | 57 | 40 | 0.0 | 2.0 | 0.00 | 0.00 | 0.00 | 79 | 1014.7 |
| 20260508093800 | 57 | 286 | 0.0 | 0.0 | 0.00 | 0.00 | 0.00 | 79 | 1014.7 |
| 20260508093554 | 57 | 287 | 0.0 | 3.0 | 0.00 | 0.00 | 0.00 | 77 | 1014.7 |
| 20260508093343 | 57 | 289 | 0.0 | 3.0 | 0.00 | 0.00 | 0.00 | 76 | 1014.7 |
| 20260508093135 | 57 | 269 | 0.0 | 3.0 | 0.00 | 0.00 | 0.00 | 76 | 1014.7 |
| 20260508092934 | 57 | 285 | 0.0 | 3.0 | 0.00 | 0.00 | 0.00 | 80 | 1014.6 |
| 20260508092725 | 57 | 51 | 0.0 | 3.0 | 0.00 | 0.00 | 0.00 | 80 | 1014.7 |
| 20260508092522 | 56 | 280 | 0.0 | 0.0 | 0.00 | 0.00 | 0.00 | 80 | 1014.7 |
| 20260508092319 | 56 | 278 | 0.0 | 4.0 | 0.00 | 0.00 | 0.00 | 80 | 1014.7 |
| 20260508092119 | 56 | 290 | 0.0 | 4.0 | 0.00 | 0.00 | 0.00 | 78 | 1014.7 |
| 20260508091914 | 56 | 276 | 0.0 | 4.0 | 0.00 | 0.00 | 0.00 | 81 | 1014.7 |
| 20260508091709 | 56 | 75 | 0.0 | 5.0 | 0.00 | 0.00 | 0.00 | 81 | 1014.7 |
| 20260508091509 | 56 | 287 | 0.0 | 5.0 | 0.00 | 0.00 | 0.00 | 82 | 1014.7 |
| 20260508091305 | 56 | 65 | 0.0 | 5.0 | 0.00 | 0.00 | 0.00 | 80 | 1014.8 |
| 20260508091103 | 56 | 56 | 0.0 | 5.0 | 0.00 | 0.00 | 0.00 | 83 | 1014.8 |
| 20260508090543 | 55 | 142 | 1.0 | 5.0 | 0.00 | 0.00 | 0.00 | 82 | 1014.8 |
| 20260508090335 | 55 | 63 | 1.0 | 5.0 | 0.00 | 0.00 | 0.00 | 82 | 1014.8 |
| 20260508090127 | 55 | 44 | 1.0 | 5.0 | 0.00 | 0.00 | 0.00 | 83 | 1014.8 |
| 20260508085604 | 56 | 63 | 0.0 | 4.0 | 0.00 | 0.00 | 0.00 | 80 | 1014.8 |
| 20260508085403 | 56 | 44 | 0.0 | 2.0 | 0.00 | 0.00 | 0.00 | 81 | 1014.8 |
| 20260508085202 | 56 | 257 | 0.0 | 2.0 | 0.00 | 0.00 | 0.00 | 81 | 1014.8 |
| 20260508084643 | 55 | 153 | 0.0 | 2.0 | 0.00 | 0.00 | 0.00 | 83 | 1014.8 |
| 20260508084436 | 55 | 249 | 0.0 | 2.0 | 0.00 | 0.00 | 0.00 | 81 | 1014.9 |
| 20260508084226 | 55 | 290 | 0.0 | 2.0 | 0.00 | 0.00 | 0.00 | 82 | 1014.8 |
| 20260508084021 | 55 | 278 | 0.0 | 2.0 | 0.00 | 0.00 | 0.00 | 82 | 1014.9 |
| 20260508083821 | 55 | 286 | 0.0 | 2.0 | 0.00 | 0.00 | 0.00 | 83 | 1014.9 |
| 20260508083302 | 54 | 67 | 0.0 | 1.0 | 0.00 | 0.00 | 0.00 | 81 | 1014.9 |
| 20260508083058 | 54 | 303 | 0.0 | 0.0 | 0.00 | 0.00 | 0.00 | 81 | 1014.9 |
| 20260508082851 | 55 | 293 | 0.0 | 2.0 | 0.00 | 0.00 | 0.00 | 82 | 1014.9 |
| 20260508082332 | 55 | 284 | 0.0 | 1.0 | 0.00 | 0.00 | 0.00 | 82 | 1014.8 |
| 20260508082123 | 54 | 244 | 0.0 | 1.0 | 0.00 | 0.00 | 0.00 | 82 | 1014.9 |
| 20260508081919 | 54 | 64 | 0.0 | 1.0 | 0.00 | 0.00 | 0.00 | 83 | 1014.8 |
| 20260508081716 | 54 | 265 | 0.0 | 1.0 | 0.00 | 0.00 | 0.00 | 84 | 1014.7 |
| 20260508081508 | 53 | 257 | 0.0 | 0.0 | 0.00 | 0.00 | 0.00 | 83 | 1014.8 |
| 20260508081305 | 53 | 291 | 0.0 | 2.0 | 0.00 | 0.00 | 0.00 | 82 | 1014.8 |
| 20260508081057 | 54 | 297 | 0.0 | 2.0 | 0.00 | 0.00 | 0.00 | 81 | 1014.8 |
| 20260508080848 | 54 | 49 | 0.0 | 2.0 | 0.00 | 0.00 | 0.00 | 83 | 1014.8 |
| 20260508080645 | 53 | 49 | 0.0 | 2.0 | 0.00 | 0.00 | 0.00 | 82 | 1014.7 |
| 20260508080112 | 53 | 260 | 0.0 | 1.0 | 0.00 | 0.00 | 0.00 | 84 | 1014.7 |
| 20260508075911 | 53 | 285 | 0.0 | 1.0 | 0.00 | 0.00 | 0.00 | 84 | 1014.6 |
| 20260508075708 | 52 | 280 | 0.0 | 3.0 | 0.00 | 0.00 | 0.00 | 83 | 1014.7 |
| 20260508075147 | 53 | 316 | 0.0 | 3.0 | 0.00 | 0.00 | 0.00 | 84 | 1014.6 |
| 20260508074946 | 53 | 291 | 0.0 | 3.0 | 0.00 | 0.00 | 0.00 | 84 | 1014.7 |
| 20260508074736 | 53 | 278 | 0.0 | 1.0 | 0.00 | 0.00 | 0.00 | 84 | 1014.6 |
| 20260508074216 | 53 | 276 | 0.0 | 3.0 | 0.00 | 0.00 | 0.00 | 84 | 1014.6 |
| 20260508073643 | 52 | 214 | 0.0 | 3.0 | 0.00 | 0.00 | 0.00 | 84 | 1014.5 |
| 20260508073114 | 52 | 92 | 0.0 | 2.0 | 0.00 | 0.00 | 0.00 | 85 | 1014.5 |
| 20260508072912 | 52 | 298 | 0.0 | 2.0 | 0.00 | 0.00 | 0.00 | 84 | 1014.5 |
| 20260508072710 | 52 | 80 | 0.0 | 2.0 | 0.00 | 0.00 | 0.00 | 87 | 1014.6 |
| 20260508072508 | 51 | 57 | 0.0 | 2.0 | 0.00 | 0.00 | 0.00 | 86 | 1014.6 |
| 20260508072307 | 51 | 263 | 0.0 | 0.0 | 0.00 | 0.00 | 0.00 | 85 | 1014.6 |
| 20260508072103 | 52 | 259 | 0.0 | 0.0 | 0.00 | 0.00 | 0.00 | 85 | 1014.5 |
| 20260508071546 | 52 | 217 | 0.0 | 0.0 | 0.00 | 0.00 | 0.00 | 87 | 1014.5 |
| 20260508071023 | 52 | 283 | 0.0 | 3.0 | 0.00 | 0.00 | 0.00 | 85 | 1014.6 |
| 20260508070821 | 52 | 53 | 0.0 | 3.0 | 0.00 | 0.00 | 0.00 | 85 | 1014.6 |
| 20260508070615 | 52 | 284 | 0.0 | 2.0 | 0.00 | 0.00 | 0.00 | 84 | 1014.5 |
| 20260508070040 | 52 | 53 | 0.0 | 2.0 | 0.00 | 0.00 | 0.00 | 83 | 1014.5 |
| 20260508065832 | 53 | 42 | 0.0 | 2.0 | 0.00 | 0.00 | 0.00 | 85 | 1014.6 |
| 20260508065628 | 53 | 66 | 0.0 | 2.0 | 0.00 | 0.00 | 0.00 | 85 | 1014.6 |
| 20260508065421 | 53 | 345 | 0.0 | 2.0 | 0.00 | 0.00 | 0.00 | 86 | 1014.6 |
| 20260508065221 | 52 | 53 | 0.0 | 2.0 | 0.00 | 0.00 | 0.00 | 86 | 1014.5 |
| 20260508065015 | 52 | 52 | 0.0 | 2.0 | 0.00 | 0.00 | 0.00 | 86 | 1014.5 |
| 20260508064809 | 52 | 49 | 0.0 | 2.0 | 0.00 | 0.00 | 0.00 | 85 | 1014.4 |
| 20260508064607 | 52 | 49 | 0.0 | 2.0 | 0.00 | 0.00 | 0.00 | 85 | 1014.4 |
| 20260508064402 | 51 | 72 | 0.0 | 2.0 | 0.00 | 0.00 | 0.00 | 86 | 1014.4 |
| 20260508064200 | 51 | 60 | 0.0 | 2.0 | 0.00 | 0.00 | 0.00 | 87 | 1014.4 |
| 20260508063630 | 51 | 68 | 0.0 | 3.0 | 0.00 | 0.00 | 0.00 | 87 | 1014.4 |
| 20260508063431 | 50 | 70 | 0.0 | 3.0 | 0.00 | 0.00 | 0.00 | 86 | 1014.4 |
| 20260508063231 | 50 | 56 | 0.0 | 3.0 | 0.00 | 0.00 | 0.00 | 86 | 1014.4 |